Regional Weather Roundup
Issued by NWS Green Bay, WI

Home | Current Version | Previous Version | Text Only | Print | Product List | Glossary On
Versions: 1 2 3 4 5 6 7 8 9 10 11 12 13 14 15 16 17 18 19 20 21 22 23 24 25 26 27 28 29 30 31 32 33 34 35 36 37 38 39 40 41 42 43 44 45 46 47 48 49 50
000
ASUS43 KGRB 260400
RWRGRB

NORTH-CENTRAL AND NORTHEAST WISCONSIN REGIONAL WEATHER ROUNDUP
NATIONAL WEATHER SERVICE GREEN BAY WI
1100 PM CDT THU MAY 25 2017

WIZ005-009-010>012-018-019-260500-
NORTH CENTRAL WISCONSIN

CITY           SKY/WX    TMP DP  RH WIND       PRES   REMARKS
IRONWOOD       CLEAR     58  47  66 E7        29.74R
MANITOWISH WTR NOT AVBL
ARBOR VITAE    NOT AVBL
EAGLE RIVER    NOT AVBL
LAND O LAKES   NOT AVBL
RHINELANDER    CLOUDY    60  51  72 E5        29.77R
PHILLIPS       NOT AVBL
ANTIGO         NOT AVBL
TOMAHAWK       NOT AVBL
MERRILL        NOT AVBL
$$

WIZ013-073-260500-
NORTHEAST WISCONSIN

CITY           SKY/WX    TMP DP  RH WIND       PRES   REMARKS
IRON MOUNTAIN  CLEAR     51  47  86 CALM      29.78R
MARINETTE      CLEAR     52  50  93 NW3       29.79R
$$

WIZ017-030-035>037-045-260500-
CENTRAL WISCONSIN

CITY           SKY/WX    TMP DP  RH WIND       PRES   REMARKS
MEDFORD        NOT AVBL
WAUSAU         CLOUDY    61  52  72 S6        29.74R
MOSINEE        NOT AVBL
MARSHFIELD     CLOUDY    59  50  72 CALM      29.74R
WISC RAPIDS    CLOUDY    57  51  80 SE5       29.76R
STEVENS POINT  NOT AVBL
WAUPACA        NOT AVBL
SHAWANO        NOT AVBL
CLINTONVILLE   NOT AVBL
WAUTOMA        MOCLDY    56  53  90 CALM      29.77
$$

WIZ038-039-048-051-260500-
FOX VALLEY

CITY           SKY/WX    TMP DP  RH WIND       PRES   REMARKS
NWS GREEN BAY  CLEAR     57  53  86 E6        29.78R
APPLETON       PTCLDY    57  50  77 CALM      29.76R
OSHKOSH        CLEAR     55  52  89 SE3       29.76R
FOND DU LAC    CLEAR     55  50  83 S5        29.76R
$$

WIZ022-050-052-260500-
EAST CENTRAL WISCONSIN

CITY           SKY/WX    TMP DP  RH WIND       PRES   REMARKS
EPHRAIM        NOT AVBL
WASHINGTON ISL NOT AVBL
STURGEON BAY   CLEAR     54  51  90 CALM      29.78R
MANITOWOC      NOT AVBL
SHEBOYGAN      CLEAR     51  50  96 N5        29.77R
$$

LMZ563-521-522-541>543-260500-
LAKESHORE

STATION/POSITION TIME  TEMP    WIND        PRES    VSBY  WAVE
                       AIR SEA DIR/SP/G                  HT/PER
                 (UTC) (F)     (DEG/KT/KT) (MB)    (MI)  (FT/S)
SHEBOYGAN LKSHOR 0300   54      10/  8/  9 1007.4R
KEWAUNEE LKSHORE 0330   53      20/  6/  8 1007.6R
NORTHPORT PIER   0340   51     290/  4/  7 1008.1R
N MID LAKE BUOY  0250   45 41   10/  6/  8 1008.1R         0
CHAMBERS ISLAND  0340   51     250/  3/  4 1008.1R
MENOMINEE LKSHOR 0324           30/ 10/ 11 1007.0
$$



USA.gov is the U.S. government's official web portal to all federal, state and local government web resources and services.